Wind_Speed
18 17 15 14 14 13 12 11 12 14 14 14 14 14 15 16 16 15 13 14 15 15 15 12 10 11 15 17 16 15 15 14 13 13 12 12 13 13 11 10 11 12 13 13 12 12 11 10 9 9 9 9 9 9 9 9 9 9 9 10 10 9 9 9 8 8 8 8 9 9 10 11 12 12 12 12 12 13 13 13 13 13 13 13 13
17 15 14 13 13 13 12 12 13 14 15 14 13 13 14 15 14 14 14 15 15 14 12 10 11 13 17 18 15 13 12 10 13 14 12 11 11 9 8 8 10 11 12 12 12 11 11 10 10 10 10 9 9 9 9 9 9 9 9 9 10 10 10 10 10 9 9 9 9 9 9 10 10 11 11 12 12 12 12 12 13 13 13 13 13
14 14 13 13 12 12 11 12 13 13 13 13 12 12 13 14 14 14 13 14 15 14 11 10 11 13 15 16 14 12 9 7 10 12 11 10 8 7 8 10 11 11 11 12 11 11 11 10 10 10 10 9 9 9 9 9 9 9 9 9 9 9 10 10 11 11 11 11 10 10 10 10 10 10 10 11 11 12 12 12 12 13 13 13 13
13 13 13 12 11 11 12 12 12 11 10 10 9 11 11 13 14 13 12 13 15 13 10 10 11 13 14 14 14 12 9 8 9 10 10 8 8 9 10 11 10 10 11 11 11 11 11 11 10 10 10 9 9 9 8 8 8 9 9 9 9 9 9 10 10 11 12 12 12 12 12 11 11 10 10 10 10 10 11 11 12 12 12 13 13
12 11 11 11 11 11 12 11 10 9 7 6 7 9 11 12 13 13 12 14 15 12 10 10 11 12 12 12 12 11 10 8 8 9 8 8 8 8 9 9 9 9 10 10 10 11 11 11 10 10 10 9 9 8 8 8 8 8 8 8 8 8 9 9 10 11 11 12 13 13 14 14 14 13 12 12 11 11 11 11 11 11 11 12 12
12 11 10 10 10 10 10 10 8 6 5 4 6 8 10 11 12 12 13 14 13 10 9 8 8 9 10 10 10 9 8 6 5 5 5 6 7 7 7 7 7 7 7 7 8 9 9 9 9 9 9 8 8 7 7 7 8 8 8 8 8 8 8 9 9 10 10 11 12 13 14 15 15 15 15 15 14 13 13 13 12 12 12 12 12
11 11 11 10 9 8 8 7 6 5 5 5 6 6 8 9 10 11 11 9 8 7 7 7 8 8 9 11 9 5 4 4 4 3 3 4 5 6 5 5 5 4 4 5 6 6 5 6 7 8 8 7 7 6 6 6 6 7 7 7 7 7 7 8 8 9 10 11 12 13 14 15 15 16 16 16 16 16 16 15 15 15 14 14 14
10 11 11 9 7 6 6 5 6 6 5 6 6 6 7 7 8 8 6 5 6 7 9 8 8 9 8 8 6 3 3 3 4 4 2 3 4 4 3 3 2 2 3 4 5 5 3 3 4 5 6 6 6 5 5 5 4 5 5 6 6 7 7 7 8 8 9 10 11 12 13 14 15 16 16 17 17 17 17 17 17 17 16 17 17
10 11 10 8 7 5 6 7 7 7 5 6 7 7 7 7 7 7 4 6 7 8 8 5 5 6 4 3 4 4 4 4 4 3 1 2 2 2 2 2 1 1 2 3 4 4 3 3 2 2 3 4 5 5 5 4 3 4 5 5 6 6 6 6 7 7 8 9 10 11 12 13 14 14 15 16 16 16 16 16 16 16 16 16 17
10 10 9 8 7 6 7 9 8 8 7 7 7 7 7 7 8 5 5 8 7 7 7 5 4 5 3 1 1 2 3 3 3 1 1 1 1 2 2 1 1 1 1 2 3 4 4 4 3 2 2 2 3 4 4 4 3 4 4 5 5 5 5 5 5 5 6 6 7 9 10 11 11 12 13 14 15 15 15 15 14 13 13 14 15
9 9 9 8 8 7 8 10 9 9 7 7 8 8 8 9 8 5 7 8 7 7 7 7 6 6 4 3 2 3 3 2 2 1 1 1 1 2 1 0 1 1 2 2 2 4 5 5 6 6 5 4 4 4 3 2 2 3 3 4 4 4 4 4 4 3 4 5 6 6 7 8 8 9 9 10 12 12 12 12 12 11 11 12 13
10 10 9 8 9 8 9 10 10 8 7 7 8 8 9 9 8 7 8 8 8 8 8 8 7 6 5 5 5 5 4 2 1 2 2 2 1 1 1 2 3 3 3 2 3 4 6 6 7 7 6 5 5 5 4 3 2 3 3 3 3 3 3 3 3 4 5 5 5 5 5 5 5 5 5 6 7 8 8 9 9 10 10 10 10
11 10 9 9 9 8 8 9 9 7 7 8 9 9 9 8 7 7 6 7 8 9 8 8 7 6 7 6 5 5 4 3 2 3 3 2 2 2 2 2 3 3 3 3 4 5 6 7 6 6 6 6 6 5 4 3 2 2 2 2 2 3 3 4 5 5 6 6 5 5 5 5 5 4 4 4 5 5 6 7 7 7 7 8 8
11 10 9 8 8 7 8 9 7 8 9 9 10 10 9 8 7 6 6 7 9 8 7 8 8 8 8 8 6 4 3 3 3 4 3 2 2 2 2 3 3 3 2 2 3 3 4 5 4 4 4 4 4 4 4 2 2 2 2 3 3 3 4 5 6 6 6 6 6 5 5 6 5 5 4 4 4 5 5 6 6 6 6 6 7
10 10 8 8 8 8 9 8 8 9 9 9 10 10 9 8 7 6 7 8 9 8 8 9 9 9 9 8 6 5 5 4 4 4 4 3 3 3 3 3 3 3 2 1 2 2 2 3 2 3 3 3 3 3 2 1 2 2 3 3 4 4 5 6 6 6 6 6 6 6 6 6 5 5 5 5 5 5 6 6 6 6 6 6 6
9 9 9 9 8 9 9 9 9 9 10 9 10 10 9 8 8 8 9 9 9 9 9 10 11 11 10 8 7 7 6 6 5 5 5 5 4 4 4 3 3 2 2 2 2 1 1 1 1 1 1 1 1 2 2 2 3 3 4 4 5 6 6 7 7 7 6 7 7 7 6 6 6 6 6 6 6 6 6 6 7 7 7 7 7
9 9 9 8 8 10 10 10 10 11 11 10 9 9 9 10 9 9 10 10 9 9 8 10 11 11 10 8 8 8 7 7 7 6 6 6 5 5 4 3 3 3 3 3 3 1 0 0 1 2 2 1 2 3 3 3 4 5 5 6 7 8 9 9 8 7 6 6 7 7 7 7 7 7 7 7 7 7 7 7 8 8 8 8 8
10 10 9 9 10 11 11 12 12 12 12 11 9 8 8 9 9 8 9 9 8 7 8 9 10 10 10 9 8 8 7 7 8 7 7 6 6 5 5 5 4 4 4 4 4 3 2 1 3 3 3 3 4 4 5 5 5 6 6 7 8 9 9 9 9 8 7 6 7 7 8 8 8 7 7 7 7 7 8 8 8 9 9 9 9
11 10 11 12 13 13 13 13 14 13 12 11 10 9 9 9 8 8 8 8 7 7 7 9 9 10 10 9 8 8 8 8 8 8 7 7 7 6 6 6 5 5 6 6 5 4 3 3 5 5 5 5 5 5 6 5 5 6 6 7 8 8 9 9 10 9 8 7 7 8 8 8 8 8 8 8 8 8 8 9 9 10 10 10 9
10 10 12 14 14 14 14 15 14 12 10 10 10 9 9 9 8 9 9 8 7 7 8 9 9 9 9 8 8 8 8 8 9 8 8 8 8 7 7 7 6 6 6 6 5 5 4 5 6 6 5 5 6 6 6 6 6 6 7 7 8 9 9 10 10 10 9 9 9 9 9 9 9 9 9 8 8 8 9 9 10 10 11 11 11
10 10 11 14 15 16 15 15 14 12 11 11 10 9 9 9 8 9 10 9 7 7 8 9 8 8 8 7 7 8 8 8 9 9 9 9 8 8 8 8 7 7 7 7 6 5 5 6 6 5 5 5 5 5 5 6 6 7 7 8 9 9 10 11 11 10 10 10 10 10 10 10 10 9 9 8 8 8 8 9 9 10 11 11 12
10 10 10 12 15 16 15 15 13 12 12 11 10 9 9 9 8 9 10 9 8 8 8 8 8 8 7 7 7 7 8 8 8 8 8 8 8 8 8 8 8 8 8 7 5 5 7 7 5 4 5 6 5 5 6 6 7 8 9 10 10 11 11 11 11 11 11 11 11 11 11 11 10 9 8 8 7 7 7 8 9 10 10 11 12
12 11 11 11 12 13 14 13 12 11 11 10 10 9 8 8 9 9 10 10 9 8 8 8 8 8 8 8 7 7 8 8 8 8 8 8 7 8 8 8 8 7 7 6 5 6 8 7 5 5 6 6 6 6 7 7 8 9 10 11 12 12 12 12 11 11 11 11 11 11 11 10 10 9 8 7 7 7 7 7 8 9 10 11 12
13 13 13 13 13 13 12 12 10 10 10 10 9 8 8 8 8 9 10 10 9 8 8 8 8 9 8 8 8 9 9 9 9 9 9 9 8 9 9 8 8 7 7 6 5 7 8 7 7 7 7 7 7 7 8 9 10 11 12 12 12 13 12 12 11 11 11 11 11 11 10 10 10 9 8 7 6 6 7 7 8 9 10 11 12
15 15 14 15 16 14 13 13 11 10 10 10 9 8 8 8 9 9 9 9 9 8 8 9 9 8 8 8 9 10 10 9 9 9 9 9 9 10 9 9 8 7 6 5 6 7 8 9 9 8 7 8 8 9 10 11 12 12 13 13 12 12 12 11 11 12 12 11 11 10 10 10 10 9 8 7 6 6 7 7 8 9 10 11 12
16 16 15 16 17 15 14 14 12 10 9 9 9 9 9 9 9 9 8 8 8 8 8 8 7 7 7 8 8 9 9 9 9 9 10 10 10 10 9 9 8 7 6 6 7 8 10 10 9 9 9 9 10 10 11 12 13 13 13 12 12 11 11 11 11 12 12 11 10 10 10 9 9 9 8 7 6 6 7 7 8 9 10 11 12
16 16 16 17 17 16 16 15 12 10 9 10 10 11 10 10 9 8 7 8 7 6 6 5 5 6 6 7 8 9 9 9 9 10 10 11 10 10 10 9 9 7 7 7 8 10 11 10 9 10 10 10 11 12 12 13 13 13 13 12 12 11 11 12 12 12 11 11 10 10 9 9 8 8 8 7 6 6 7 7 8 9 10 11 11
16 17 17 17 17 17 16 14 11 10 9 10 12 12 11 11 9 9 8 8 7 6 5 5 5 6 7 7 8 9 10 10 10 10 11 11 10 10 10 10 9 8 8 8 10 11 11 11 10 10 11 11 12 12 13 13 13 13 13 13 12 12 12 12 12 11 11 10 10 10 9 9 8 8 8 7 7 7 7 8 9 9 10 10 11
18 18 18 17 16 16 15 13 11 11 10 11 13 12 12 12 10 10 9 8 7 7 7 6 6 6 8 8 9 9 9 10 10 10 11 10 10 11 11 10 9 8 8 9 10 11 12 11 10 10 11 11 12 12 13 14 14 14 14 14 13 13 13 12 12 11 11 11 11 10 9 8 8 8 8 8 7 7 8 8 9 9 10 10 11
19 19 17 16 16 15 14 13 12 12 11 12 13 13 12 12 11 10 10 9 8 8 8 8 8 7 8 9 9 8 9 10 10 10 9 9 10 10 10 10 9 9 8 9 10 11 12 11 10 11 11 11 12 13 13 14 15 15 15 15 14 13 13 12 11 11 11 11 11 10 9 9 9 9 9 9 9 9 9 9 10 10 10 10 11
17 17 16 16 16 16 16 15 15 14 13 13 14 13 13 13 12 11 10 10 10 9 9 10 9 8 8 8 9 9 9 9 9 9 9 10 10 10 10 10 9 8 9 9 10 11 12 12 11 11 12 12 13 13 14 15 15 15 15 15 15 14 13 12 12 11 11 11 10 9 9 9 10 10 10 10 10 10 10 11 11 11 11 11 11
14 16 17 17 17 18 18 18 18 16 14 14 15 14 15 14 13 12 11 11 11 10 11 11 10 8 8 8 9 9 10 9 9 9 9 10 10 11 11 11 10 9 10 11 10 11 14 14 12 12 13 14 14 14 15 15 15 15 15 15 14 13 13 12 12 12 12 11 10 10 10 10 11 11 12 12 12 12 12 13 13 12 12 12 13
12 15 18 18 18 20 20 19 19 17 16 15 16 15 16 16 15 13 12 12 12 12 12 12 11 9 8 9 9 10 10 10 10 10 10 10 10 12 13 13 12 11 12 13 12 13 15 16 15 14 14 15 15 15 15 16 15 16 15 15 14 13 13 13 13 13 13 12 11 11 11 11 12 13 14 14 14 14 14 14 14 14 14 14 14
13 15 17 18 19 22 22 21 19 17 16 16 16 16 16 16 16 15 14 14 13 13 13 13 12 10 9 10 11 11 12 12 12 11 11 11 11 12 13 14 13 12 13 15 15 15 16 16 17 16 15 16 17 16 16 17 17 16 16 15 15 14 14 14 14 14 14 13 13 13 13 13 14 14 15 16 16 16 16 16 16 16 15 16 16
14 15 16 17 19 20 20 19 18 17 16 16 17 17 17 17 16 16 15 15 15 14 14 14 14 12 11 12 13 13 14 15 14 14 13 12 13 15 16 15 13 12 14 15 16 16 16 16 17 17 16 17 19 18 17 18 18 18 17 16 16 16 16 16 16 16 15 15 14 14 14 14 15 16 16 17 17 17 17 17 18 18 18 18 18
15 16 16 16 17 17 17 16 16 16 16 16 16 16 17 17 17 16 16 16 15 15 16 16 16 15 14 14 14 15 16 16 16 16 15 14 14 16 18 18 16 14 14 15 15 16 16 16 17 18 17 18 20 20 19 19 19 19 18 17 17 17 18 18 18 17 17 17 16 16 16 16 16 17 18 18 19 19 19 20 20 20 21 21 21
16 16 15 16 17 17 16 15 15 16 16 16 16 16 17 17 17 17 17 16 16 16 16 17 17 17 17 16 16 16 17 18 18 17 17 16 16 17 19 19 18 17 15 15 15 17 17 16 17 19 18 18 19 21 21 20 20 20 19 18 17 19 21 20 19 19 19 19 18 18 17 17 18 19 19 20 20 21 21 22 23 23 24 24 24
16 16 16 16 17 17 16 16 16 16 16 16 16 15 16 16 17 17 17 17 17 17 17 17 17 17 18 17 17 17 19 19 19 19 19 19 19 20 20 21 21 19 17 16 17 18 18 18 17 18 19 18 19 21 22 21 21 21 22 21 19 20 23 23 20 20 21 21 20 20 19 19 20 20 21 21 22 23 24 25 26 27 27 28 27
16 16 17 18 17 17 17 16 16 16 15 15 15 16 16 17 17 18 18 18 17 17 18 17 17 17 17 18 18 18 19 20 20 20 20 20 20 20 20 22 23 23 21 19 19 20 21 20 18 18 19 19 20 21 22 23 23 22 23 22 20 19 22 24 23 22 22 22 22 21 21 21 22 22 22 23 24 25 26 28 29 30 31 31 31
17 17 17 18 17 17 17 17 17 16 16 16 17 17 18 18 18 18 18 18 18 18 18 17 16 16 17 19 20 20 20 21 22 22 21 20 20 19 19 19 21 24 25 23 21 20 21 21 19 18 19 21 21 22 22 22 24 25 24 22 20 19 22 24 25 24 23 23 23 23 22 23 23 23 24 25 26 28 29 30 32 33 33 34 33
18 18 18 18 17 17 18 17 17 17 17 17 17 18 18 18 18 18 18 18 18 18 17 16 16 16 18 20 20 21 21 21 22 22 21 21 20 21 20 18 18 21 23 24 22 20 20 21 21 21 20 21 23 23 22 22 23 25 26 24 22 22 22 23 24 26 26 26 25 24 24 25 25 25 26 27 29 30 31 32 34 35 35 36 36
18 18 18 19 19 19 19 18 18 17 17 18 18 18 17 17 17 17 18 19 18 18 17 17 17 18 20 21 21 21 21 20 19 18 18 19 19 19 20 18 17 18 20 22 23 21 20 21 21 22 21 21 23 24 24 24 23 23 25 26 26 25 24 24 25 25 26 28 28 27 27 27 27 27 28 30 31 32 33 34 36 37 37 38 38
17 17 18 19 19 19 19 18 17 17 18 18 19 19 18 17 17 18 19 19 18 18 19 20 20 20 21 21 21 20 20 19 18 17 18 18 17 16 16 17 18 18 19 20 21 21 21 21 21 21 21 21 22 23 24 25 26 26 26 26 28 28 28 27 26 25 25 27 29 29 29 30 30 30 31 31 32 33 34 35 37 39 40 41 41
16 17 17 18 18 17 17 18 18 18 19 19 19 20 19 18 19 19 20 20 19 20 21 21 21 21 21 22 21 21 21 19 18 18 18 18 17 16 16 17 19 19 19 18 18 20 21 22 22 22 21 21 21 21 22 24 26 28 29 29 29 29 29 29 28 27 26 26 28 30 31 33 34 34 34 36 36 36 36 37 40 42 44 44 45
17 17 17 16 16 16 17 18 19 19 19 20 20 20 19 20 21 20 20 21 20 21 22 22 22 22 22 22 22 21 21 19 18 18 19 19 19 19 20 21 21 20 20 19 19 19 20 21 22 23 23 23 23 23 23 24 25 26 28 30 31 31 31 32 32 31 30 30 30 32 33 34 35 37 39 41 42 42 42 43 45 47 49 49 49
18 17 16 14 13 14 15 16 18 19 19 19 19 20 21 22 23 22 22 22 22 22 23 23 23 23 22 22 22 22 22 21 19 18 18 19 21 21 22 22 22 22 21 21 21 21 22 23 23 23 24 25 25 25 26 26 27 27 28 30 32 33 33 34 35 35 34 35 36 37 36 36 37 40 41 41 43 47 48 49 51 52 52 51 50
18 16 15 13 12 13 13 14 16 18 19 19 19 20 21 22 23 23 22 23 23 23 23 23 23 23 23 23 23 23 24 23 22 21 21 21 22 23 23 23 23 23 23 23 24 25 26 26 25 25 26 27 28 29 29 29 30 31 32 32 33 34 34 35 36 37 37 38 40 41 42 42 44 44 42 41 44 48 50 52 54 54 53 52 53
20 18 16 16 17 17 17 17 19 21 22 22 21 21 21 23 24 23 22 24 24 24 24 24 25 25 25 25 25 24 25 25 25 25 24 24 24 25 25 25 25 25 25 25 26 27 29 29 29 29 30 31 32 33 33 34 35 36 37 37 37 37 37 37 37 37 39 40 42 44 44 46 47 47 45 45 46 49 52 54 56 57 57 58 58
20 20 19 19 20 20 20 19 20 21 22 23 23 23 23 24 26 26 26 27 27 25 24 25 26 26 26 25 25 26 27 28 28 27 27 27 28 28 28 28 28 28 28 28 28 30 30 31 32 33 34 35 36 37 37 38 39 39 41 41 42 42 42 42 41 41 42 43 45 46 46 46 47 47 47 48 48 50 53 55 58 61 61 60 62
19 20 20 21 21 21 20 20 20 21 22 22 23 24 25 26 27 29 29 28 28 29 28 27 26 26 25 25 26 28 29 30 30 29 30 30 30 31 31 31 32 33 33 32 32 33 33 34 35 36 38 39 40 39 39 40 41 42 43 44 45 45 45 44 45 46 47 47 48 48 47 46 47 48 50 51 52 53 54 55 59 62 62 63 66
19 20 21 21 21 22 22 22 21 22 23 23 24 25 27 27 27 28 29 29 30 30 29 26 25 24 25 27 28 29 30 30 31 31 32 32 32 33 33 34 35 35 36 35 35 35 36 38 39 40 42 44 45 44 44 44 46 47 48 49 49 48 47 47 48 48 48 48 49 49 49 50 51 52 53 52 53 55 56 56 58 61 64 65 66
Wind_Direction
254 253 244 234 236 243 247 248 255 261 265 269 273 274 270 266 263 262 262 263 263 263 265 273 284 285 283 283 286 289 279 267 267 271 270 266 271 276 275 285 293 293 293 291 289 287 286 282 274 270 268 267 261 252 246 243 245 246 244 242 240 239 239 242 248 253 257 259 260 261 262 261 260 260 260 259 259 259 260 260 261 262 264 266 269
241 238 228 223 232 240 242 244 252 261 268 273 274 270 264 260 261 264 264 265 266 263 264 271 276 276 278 283 290 294 288 272 263 265 268 269 275 271 264 285 295 294 292 290 287 282 279 275 267 265 264 265 261 252 247 244 245 247 246 245 242 241 240 241 244 249 253 256 259 261 262 263 262 261 261 260 259 259 260 260 260 260 260 262 263
222 220 220 224 229 235 242 248 255 261 267 270 270 268 265 262 262 263 263 264 264 263 264 265 270 274 278 286 291 288 281 269 268 268 263 264 268 267 276 290 292 292 291 287 284 278 275 271 266 264 264 264 259 252 247 243 244 247 249 248 246 244 242 242 244 247 251 253 255 256 258 259 260 260 260 260 260 260 260 260 260 259 260 260 262
215 215 219 225 225 235 248 253 257 257 258 262 267 272 272 271 268 266 265 264 264 264 266 270 275 276 275 280 284 280 269 262 271 267 257 264 275 278 286 290 290 295 294 289 284 280 275 269 264 261 260 257 254 251 248 245 245 248 250 251 251 249 247 246 246 247 249 251 253 255 255 256 256 257 257 258 259 259 259 261 261 262 263 264 266
217 218 222 228 230 241 251 253 252 249 255 265 274 275 274 275 274 270 267 266 269 272 274 273 269 267 269 275 279 279 271 257 257 256 256 274 286 288 292 292 293 294 294 294 290 285 278 269 262 257 254 252 250 248 247 246 247 248 249 250 252 252 252 252 251 251 251 253 255 256 256 256 255 255 256 256 257 259 260 262 263 266 267 268 269
222 221 220 224 226 231 240 245 250 255 267 279 281 279 275 274 272 267 262 262 269 277 277 265 256 263 270 272 274 273 261 237 235 255 269 280 287 292 296 298 297 296 299 301 299 291 281 272 263 255 252 250 246 243 242 244 247 250 250 250 251 251 251 252 254 255 255 255 255 255 256 256 256 255 255 256 257 259 260 262 264 266 269 270 272
221 212 208 209 213 224 235 241 247 257 275 284 281 277 271 268 266 263 261 266 278 279 268 259 260 266 265 265 264 254 235 228 244 270 290 292 287 291 300 304 301 304 316 317 314 307 290 277 264 250 247 246 242 239 238 242 249 255 257 255 254 251 249 250 253 257 257 258 257 257 257 257 257 257 256 256 255 256 258 259 261 263 266 269 271
210 204 204 204 213 236 254 257 246 248 267 278 272 260 256 257 256 258 258 269 282 272 265 271 269 264 262 257 246 229 235 250 268 286 306 294 282 289 309 318 317 314 323 332 334 332 327 305 279 253 245 243 240 238 236 237 243 252 255 255 254 251 248 248 251 255 258 262 263 262 261 259 258 257 257 256 256 256 256 258 259 262 264 266 268
208 208 208 213 234 250 259 260 244 241 259 264 259 247 245 253 252 252 239 241 260 261 261 271 262 257 262 239 225 245 253 250 269 288 296 273 270 288 305 322 359 298 303 349 7 13 14 348 316 245 231 234 233 232 231 226 227 240 249 251 249 246 246 248 252 259 266 271 273 272 269 265 262 260 258 257 257 257 257 259 261 265 268 270 272
210 215 221 237 260 254 251 257 242 240 249 241 242 239 238 249 244 239 234 234 239 242 247 251 244 245 244 219 227 255 249 258 281 288 247 239 251 274 283 303 346 296 317 39 41 49 49 38 50 96 131 170 196 203 211 210 216 233 242 242 240 244 248 255 265 271 281 288 290 289 286 280 274 268 264 260 258 257 259 261 264 268 271 274 275
217 227 239 253 262 251 249 249 237 243 245 225 228 235 235 241 236 219 223 231 231 233 242 247 250 251 242 229 237 248 258 286 304 296 246 224 218 258 270 170 96 85 76 68 63 66 62 62 72 80 94 118 139 151 165 185 205 213 221 229 233 243 254 264 270 279 296 300 301 303 301 297 289 280 273 266 261 259 259 261 263 265 268 273 277
242 246 249 255 255 253 248 235 227 241 246 228 227 234 236 238 237 224 217 226 234 232 237 245 251 251 237 231 239 254 277 294 290 280 259 212 184 222 169 113 103 94 89 87 87 82 76 80 83 80 86 102 112 122 130 143 161 162 189 220 228 243 256 260 264 280 295 294 290 291 295 299 298 290 279 268 260 255 254 255 258 262 268 274 279
254 254 250 252 251 251 237 216 220 244 247 230 225 232 236 236 242 238 221 226 236 232 231 240 242 234 233 242 248 254 271 281 270 258 252 216 188 181 149 124 115 110 104 94 91 87 84 88 86 79 82 87 94 111 121 132 151 161 203 236 231 239 252 258 265 279 285 283 279 278 280 282 282 279 271 262 256 250 251 254 259 267 273 278 283
259 258 253 249 245 241 220 207 231 254 242 226 223 231 235 233 239 237 221 228 240 239 234 239 240 236 238 246 250 249 253 262 257 239 231 222 202 181 168 149 134 132 121 103 106 103 87 82 81 80 81 79 88 112 123 137 177 207 246 264 258 252 258 265 272 278 279 276 275 273 272 271 271 271 269 267 265 263 264 266 269 273 276 282 288
260 258 254 250 245 229 214 222 251 251 234 224 221 225 229 234 235 227 223 233 245 251 251 250 251 251 251 250 246 242 243 244 242 233 219 211 209 204 198 174 152 150 146 122 133 128 90 64 64 80 84 72 90 130 145 171 217 242 257 262 263 267 272 275 276 275 274 272 272 272 271 270 269 269 270 272 273 274 275 276 277 276 277 280 284
260 260 263 258 240 221 222 243 251 237 226 223 219 219 223 230 230 229 236 242 248 256 260 260 261 260 259 253 237 228 232 236 234 234 226 219 221 221 218 200 175 175 192 192 175 142 86 41 13 35 84 55 110 182 203 238 257 265 265 264 271 282 287 287 279 272 270 268 270 274 271 271 273 273 273 273 273 272 272 273 273 274 275 276 277
265 269 270 258 232 225 235 242 237 229 227 225 219 217 220 225 226 230 240 244 249 257 262 262 261 261 258 250 237 229 230 234 235 238 233 228 234 235 234 226 206 213 225 206 200 242 271 262 291 281 259 265 234 219 232 254 265 270 271 273 281 287 292 293 286 277 272 266 267 271 272 274 276 274 275 275 273 273 272 272 273 274 275 276 275
264 266 262 253 242 239 237 234 229 228 230 228 225 224 227 234 237 240 243 248 254 259 262 261 259 259 257 248 241 237 233 232 235 239 237 235 242 247 249 246 234 228 235 235 238 250 247 244 256 249 247 249 240 241 251 257 263 268 272 276 280 284 288 291 290 286 279 270 267 269 273 277 277 274 274 275 277 277 277 277 278 279 280 280 280
265 264 258 253 250 244 235 230 227 226 229 232 234 235 236 245 248 241 246 255 257 255 254 255 255 255 255 252 246 242 236 233 234 236 239 239 243 251 254 258 258 249 247 252 252 245 238 242 241 235 235 240 240 245 253 259 265 269 274 276 279 282 285 287 289 288 284 279 275 272 271 273 275 275 274 274 275 276 278 280 281 282 283 284 283
268 265 257 249 245 243 238 231 226 223 225 234 243 247 244 248 246 236 246 256 247 242 245 247 251 251 253 253 249 244 240 236 236 237 239 241 246 252 254 259 263 259 258 261 260 255 248 242 236 231 233 237 239 244 253 263 271 274 277 277 279 283 284 285 285 285 284 282 280 276 273 272 273 273 272 273 274 276 278 280 282 284 285 286 286
263 260 254 247 242 238 236 233 228 223 221 226 237 244 243 244 244 241 249 248 230 229 239 243 247 248 248 248 245 245 244 243 244 244 245 247 250 253 256 258 257 257 263 266 264 260 251 245 240 236 239 240 243 250 261 271 277 278 278 278 279 281 282 284 283 282 281 278 277 275 275 274 271 269 269 271 274 277 279 280 282 284 286 287 288
253 249 254 258 248 236 232 230 224 221 222 225 230 234 234 235 235 236 239 234 222 223 235 242 247 248 248 248 247 248 250 251 251 252 253 254 255 258 260 260 260 263 266 264 258 250 246 250 253 248 248 252 257 264 271 277 280 280 280 279 280 281 282 283 282 279 277 275 274 274 273 271 267 265 264 265 268 272 276 279 281 283 285 285 286
245 243 251 254 242 235 233 223 214 220 224 226 229 227 226 225 220 221 225 226 221 223 233 243 249 253 255 257 256 254 256 256 255 256 256 256 260 263 262 263 266 270 270 264 255 246 249 261 268 258 258 267 272 274 276 278 277 277 276 277 280 282 283 283 281 278 274 272 272 270 268 264 260 258 256 256 260 263 268 273 276 278 279 280 282
246 244 249 245 231 230 232 220 217 228 226 225 225 219 216 215 211 214 220 225 226 229 235 242 248 253 258 261 261 258 256 255 256 258 260 262 267 271 271 269 271 275 274 268 260 257 260 268 269 265 270 276 278 278 277 275 274 274 275 278 280 282 284 283 281 278 274 271 268 264 260 256 252 250 249 250 253 258 264 268 271 274 275 275 277
246 244 244 240 231 231 236 234 235 234 224 222 220 213 210 209 209 214 219 227 232 233 235 240 244 249 257 262 264 263 262 262 261 261 263 267 273 277 276 271 272 274 270 265 265 265 267 269 272 277 281 280 279 280 278 275 275 276 277 279 280 281 281 280 278 275 273 270 264 259 254 249 245 242 243 246 251 256 262 267 270 272 272 272 273
243 241 237 232 231 238 241 237 235 229 222 217 212 211 212 211 212 214 217 224 229 232 236 240 246 251 254 259 264 268 272 271 266 263 264 268 272 274 271 268 272 272 267 269 267 264 268 272 277 281 279 279 280 280 279 279 279 280 280 280 279 278 276 275 274 272 269 266 260 254 249 244 240 238 240 243 249 256 262 266 269 270 270 270 271
243 240 234 230 234 239 235 229 227 226 224 218 212 212 213 212 209 204 206 214 219 224 233 241 256 263 262 262 264 270 277 277 273 271 271 273 274 271 268 270 274 271 269 270 267 266 271 275 277 277 276 279 281 281 281 282 283 284 283 281 278 275 274 273 271 268 265 261 257 251 247 242 238 236 238 242 247 255 260 263 265 266 267 268 269
245 240 234 232 235 234 228 224 223 225 224 222 218 215 213 210 202 193 198 208 216 225 238 252 266 269 270 272 269 270 276 279 277 274 274 277 277 274 273 274 274 271 269 268 268 271 274 274 276 277 278 281 281 282 283 284 284 284 283 281 279 277 277 275 272 267 263 258 255 251 247 243 239 237 239 244 250 254 255 257 258 259 261 262 265
243 239 233 231 232 230 227 225 224 225 223 223 222 217 213 211 203 201 208 216 226 237 246 255 259 259 265 270 269 270 274 277 275 272 274 278 278 277 277 276 275 274 271 268 269 272 273 274 276 278 281 283 283 284 285 285 284 283 282 281 280 279 278 275 271 266 261 257 254 252 249 245 242 244 247 252 256 257 256 254 254 255 257 259 262
239 235 231 230 229 229 230 230 229 228 222 221 222 219 215 214 211 215 223 231 241 249 251 253 253 253 257 261 265 268 270 271 272 274 277 277 275 274 275 276 277 276 272 267 267 269 271 274 278 280 281 282 283 284 284 284 283 281 281 280 279 278 275 271 267 262 258 256 255 253 252 251 251 253 257 259 260 260 258 255 254 254 256 258 262
234 229 227 230 231 233 235 234 233 230 223 221 222 220 219 220 221 228 236 243 251 256 256 256 254 251 252 256 259 260 262 267 272 276 278 276 276 276 275 276 276 274 271 267 267 270 271 272 275 278 280 281 281 281 281 281 280 280 280 279 277 274 270 266 261 256 253 253 253 253 253 255 258 261 263 263 262 260 258 256 255 256 258 261 264
234 235 235 234 231 232 236 236 233 229 223 222 222 222 224 226 228 237 247 253 255 256 257 257 254 249 248 252 256 257 260 265 268 271 275 278 283 284 283 282 279 275 271 267 267 269 272 275 276 276 279 280 278 278 279 279 279 279 278 276 274 271 266 261 256 253 251 251 250 251 254 257 262 266 268 267 265 262 260 259 258 258 260 262 264
247 246 243 237 230 230 234 236 234 228 222 223 223 222 226 229 233 241 249 253 254 253 251 251 250 250 254 258 259 260 261 264 267 270 273 277 281 284 285 285 283 279 276 273 270 269 273 279 281 279 279 279 278 278 279 279 279 277 275 273 271 266 261 257 254 252 251 251 252 253 255 261 265 269 270 270 267 265 263 262 262 262 262 263 265
255 251 245 237 232 233 235 234 231 225 222 223 223 223 226 229 234 241 247 251 252 251 248 245 245 251 263 269 269 268 266 266 268 268 269 270 273 275 276 277 278 280 279 277 276 274 276 281 284 283 280 280 282 282 280 280 278 275 272 270 266 263 259 255 254 253 251 252 255 259 262 265 268 269 269 269 268 266 265 264 264 264 264 265 266
255 255 249 242 237 235 231 224 219 218 219 221 222 224 227 230 235 240 246 251 252 252 249 246 246 254 266 273 274 273 271 268 268 267 266 266 269 270 270 270 271 273 273 274 277 278 280 283 284 285 283 281 283 283 278 277 278 275 270 267 264 261 258 255 254 254 254 256 258 262 266 269 270 271 270 269 268 267 267 266 266 266 266 266 267
252 253 252 246 235 223 215 210 210 214 218 221 224 226 228 230 234 238 245 250 253 254 252 250 251 258 268 273 274 272 271 270 269 269 268 267 267 269 272 274 273 268 266 271 277 281 284 286 286 287 286 281 282 285 282 278 279 276 269 264 262 260 258 256 256 255 255 258 262 265 268 270 271 271 271 270 269 269 268 268 268 268 268 267 267
246 248 250 245 230 215 208 209 213 216 219 223 227 228 229 230 234 240 246 250 252 254 254 254 255 260 267 272 272 272 272 273 274 275 275 273 269 268 270 273 272 270 269 271 276 280 282 283 284 285 285 281 279 282 284 280 277 275 269 261 257 259 261 257 255 258 260 262 265 268 270 272 272 271 270 269 269 269 269 269 270 270 269 268 267
242 243 243 240 232 223 216 215 216 218 221 226 228 230 232 235 241 247 251 253 254 255 256 257 260 264 269 272 273 275 277 279 281 281 280 278 276 274 272 273 272 271 270 269 271 273 274 275 276 279 282 280 276 277 281 281 275 272 271 266 258 258 265 265 259 260 264 268 270 272 274 275 273 271 270 270 271 271 271 271 271 271 270 270 269
239 240 239 239 237 231 224 220 220 222 224 228 232 236 240 246 251 254 255 255 256 257 259 261 263 266 269 271 273 276 278 279 280 280 280 280 281 280 279 280 279 278 275 271 269 269 270 271 274 278 281 282 279 277 279 281 278 273 271 271 266 260 265 270 267 264 267 270 272 274 276 275 274 273 274 274 275 274 274 274 274 273 273 273 273
233 234 236 238 238 235 232 229 229 231 232 234 237 242 246 251 253 255 256 257 258 259 260 261 263 266 269 271 272 273 274 275 275 275 276 277 277 278 278 279 281 281 280 277 273 271 272 273 276 278 279 281 282 280 279 280 280 279 275 272 268 262 262 267 270 271 271 271 272 274 275 275 275 276 277 277 277 276 276 277 277 277 277 277 276
227 229 233 236 237 237 238 237 237 237 238 240 243 246 249 251 252 253 255 256 258 260 260 262 264 266 267 269 271 273 274 275 276 278 278 277 276 276 275 274 276 279 280 280 279 276 274 274 275 275 276 278 280 282 282 279 277 279 279 276 271 265 262 263 267 270 272 273 273 273 274 276 277 278 278 277 277 277 277 278 278 278 278 278 277
227 231 234 235 236 238 240 242 243 244 244 246 249 250 250 251 253 254 255 257 259 261 261 261 263 264 265 267 270 271 271 271 274 277 276 277 277 277 279 279 279 280 280 281 282 281 278 276 275 275 275 277 279 282 284 282 277 274 276 278 277 273 267 262 262 264 269 273 275 276 277 278 277 277 276 276 277 277 278 279 280 280 279 278 276
231 236 237 238 237 237 239 242 244 246 248 249 250 251 251 252 254 255 256 258 259 259 260 262 264 266 268 271 273 271 269 269 272 272 273 276 278 279 283 286 286 285 283 283 284 284 281 279 277 276 276 277 279 281 283 284 283 279 276 276 277 277 273 268 263 262 266 271 275 279 280 279 278 277 276 276 277 278 279 280 280 281 280 279 278
231 237 238 238 237 236 237 240 243 247 250 251 251 252 254 255 257 257 257 257 256 257 260 263 265 267 269 271 272 271 269 269 270 269 270 274 276 277 279 283 285 287 287 285 283 283 282 281 279 278 278 278 279 280 281 281 282 283 283 281 279 277 275 272 269 266 266 270 275 280 282 283 282 281 280 280 279 279 280 282 282 281 281 281 280
230 236 236 233 232 233 235 239 243 247 251 253 253 253 256 259 261 260 258 257 257 258 261 264 265 266 267 268 270 270 269 268 265 265 267 270 272 274 276 277 278 281 283 282 279 279 283 285 284 283 283 283 284 284 284 283 282 282 283 284 283 281 279 275 273 271 269 269 272 276 279 281 282 284 285 285 284 284 284 285 285 284 284 283 281
231 236 235 232 231 231 234 241 248 251 253 254 252 251 253 257 261 263 263 260 258 258 261 264 265 266 266 266 267 268 267 266 264 264 267 269 271 274 275 277 277 279 280 280 280 282 285 286 286 286 285 286 288 289 289 288 288 287 285 284 284 284 284 282 281 280 278 276 275 275 276 276 279 284 285 284 284 285 285 286 287 287 285 282 280
226 232 237 244 246 243 243 247 253 256 258 258 258 256 255 258 262 265 264 261 259 259 262 263 263 262 261 260 260 262 264 267 269 270 271 271 272 275 277 280 281 281 280 280 280 281 281 281 281 284 286 287 288 289 288 288 288 287 287 286 286 286 287 286 284 284 285 283 281 280 279 278 280 282 282 280 279 280 281 282 284 284 282 278 276
227 233 243 253 256 253 251 248 247 250 251 252 253 253 255 261 265 264 260 260 261 259 260 261 261 259 257 256 257 258 262 267 270 273 274 275 276 278 280 283 284 284 284 283 282 280 278 277 278 281 284 286 288 288 287 286 286 285 285 285 286 285 285 284 282 282 284 285 283 283 283 283 282 282 281 280 278 280 280 279 279 279 277 274 273
229 231 238 244 246 247 247 244 243 246 247 246 245 241 241 250 257 254 252 258 262 262 259 259 259 258 257 256 258 259 261 264 267 272 276 279 281 282 283 285 286 286 286 286 285 283 281 280 280 280 281 284 286 285 284 284 284 284 284 284 284 284 284 284 283 281 282 283 283 283 283 283 282 281 280 279 279 280 280 280 282 281 278 276 276
225 228 233 238 242 245 246 244 244 246 248 248 247 244 242 243 245 245 244 248 256 261 262 260 259 258 257 257 257 259 261 265 270 274 277 279 281 282 283 284 285 286 286 287 286 286 285 284 283 282 282 283 284 284 283 283 283 284 284 283 284 285 285 285 283 283 284 285 284 283 282 281 279 278 277 277 277 277 277 279 282 282 281 282 281
236 237 239 241 244 247 249 250 250 251 252 252 251 250 250 250 249 249 247 246 249 255 259 259 259 259 258 258 259 261 264 268 272 274 276 278 279 281 282 283 283 284 284 285 285 284 284 284 283 283 283 284 284 284 283 283 283 283 283 282 283 284 283 282 282 283 284 282 281 280 279 278 277 276 276 277 277 277 276 276 277 279 282 285 283
Height
5828 5829 5829 5830 5830 5830 5831 5831 5832 5832 5832 5832 5832 5833 5833 5833 5833 5832 5832 5832 5831 5831 5831 5833 5836 5835 5833 5833 5834 5835 5835 5836 5837 5837 5837 5837 5837 5837 5837 5837 5836 5835 5835 5834 5834 5834 5834 5834 5834 5834 5834 5834 5834 5834 5834 5834 5835 5835 5835 5836 5836 5836 5836 5836 5836 5837 5837 5837 5837 5837 5837 5837 5837 5837 5838 5838 5838 5838 5838 5838 5838 5838 5838 5838 5837
5826 5826 5827 5828 5829 5829 5829 5829 5830 5830 5830 5830 5830 5830 5831 5830 5830 5830 5830 5830 5829 5829 5830 5832 5834 5833 5832 5831 5832 5833 5833 5834 5834 5834 5835 5835 5835 5835 5836 5835 5834 5834 5833 5833 5833 5832 5832 5832 5832 5832 5832 5832 5832 5832 5833 5833 5833 5834 5834 5834 5835 5835 5835 5835 5835 5836 5836 5836 5836 5836 5836 5836 5836 5836 5836 5836 5836 5836 5836 5836 5836 5836 5836 5836 5836
5823 5825 5826 5827 5827 5828 5828 5828 5828 5828 5828 5828 5828 5828 5828 5828 5828 5828 5828 5828 5828 5827 5830 5831 5831 5831 5831 5830 5831 5831 5832 5832 5832 5833 5833 5834 5834 5834 5834 5833 5833 5832 5832 5832 5831 5831 5830 5830 5831 5831 5831 5831 5831 5831 5831 5832 5832 5833 5833 5833 5834 5834 5834 5834 5834 5835 5835 5835 5835 5835 5835 5835 5835 5835 5835 5835 5835 5835 5835 5835 5834 5834 5834 5834 5834
5822 5823 5825 5826 5827 5827 5827 5826 5826 5826 5826 5826 5826 5826 5826 5826 5826 5826 5826 5827 5825 5826 5829 5829 5829 5829 5829 5829 5830 5830 5830 5831 5831 5832 5832 5832 5832 5832 5832 5832 5831 5831 5831 5830 5830 5829 5829 5829 5829 5829 5829 5829 5830 5830 5830 5831 5831 5832 5832 5832 5832 5832 5833 5833 5833 5833 5833 5833 5834 5834 5834 5834 5834 5834 5834 5834 5833 5833 5833 5833 5833 5833 5833 5833 5833
5821 5822 5824 5825 5825 5826 5826 5825 5825 5825 5824 5824 5824 5824 5824 5824 5824 5824 5825 5824 5824 5825 5827 5827 5827 5827 5827 5828 5828 5829 5829 5830 5830 5830 5830 5831 5831 5830 5830 5830 5830 5830 5829 5829 5828 5828 5828 5827 5827 5827 5828 5828 5828 5829 5829 5829 5830 5830 5831 5831 5831 5831 5832 5832 5832 5832 5832 5832 5832 5833 5833 5833 5833 5833 5833 5833 5832 5832 5832 5832 5832 5832 5832 5832 5831
5820 5821 5822 5823 5824 5824 5825 5824 5824 5823 5823 5823 5823 5823 5823 5823 5823 5823 5823 5823 5823 5824 5825 5825 5825 5825 5825 5826 5827 5827 5828 5828 5829 5829 5829 5829 5829 5829 5829 5829 5829 5828 5828 5827 5827 5827 5826 5826 5826 5826 5827 5827 5827 5828 5828 5828 5829 5829 5830 5830 5830 5830 5830 5830 5831 5831 5831 5831 5831 5831 5832 5832 5832 5832 5832 5831 5831 5831 5831 5831 5831 5831 5831 5831 5830
5819 5820 5820 5821 5822 5823 5822 5822 5822 5822 5822 5822 5822 5822 5822 5822 5822 5822 5821 5822 5823 5823 5823 5823 5824 5824 5824 5825 5826 5826 5826 5827 5828 5828 5828 5828 5828 5828 5828 5828 5828 5827 5827 5826 5826 5826 5825 5825 5825 5825 5826 5826 5826 5827 5827 5828 5828 5829 5829 5829 5829 5829 5829 5829 5830 5830 5830 5830 5830 5830 5830 5830 5830 5830 5830 5830 5830 5830 5830 5830 5830 5830 5830 5829 5829
5818 5819 5819 5820 5820 5820 5820 5820 5820 5820 5821 5821 5821 5821 5821 5821 5820 5820 5820 5821 5821 5821 5821 5822 5822 5822 5822 5823 5824 5825 5825 5825 5826 5827 5827 5827 5827 5826 5827 5827 5827 5827 5827 5826 5825 5825 5824 5824 5824 5824 5825 5825 5826 5826 5826 5827 5827 5828 5828 5828 5829 5829 5829 5828 5828 5829 5829 5829 5829 5829 5829 5829 5829 5829 5829 5829 5828 5828 5828 5828 5828 5828 5828 5828 5828
5817 5817 5817 5817 5817 5818 5818 5818 5818 5819 5820 5820 5820 5820 5820 5820 5819 5819 5819 5819 5819 5819 5820 5821 5821 5821 5821 5822 5823 5823 5823 5824 5825 5826 5826 5826 5826 5825 5826 5826 5826 5826 5826 5826 5825 5824 5824 5823 5823 5823 5824 5824 5825 5825 5826 5826 5826 5827 5828 5828 5828 5828 5828 5828 5828 5828 5828 5828 5828 5828 5827 5827 5827 5827 5827 5827 5827 5827 5827 5827 5827 5827 5827 5827 5826
5815 5815 5816 5816 5816 5817 5816 5816 5817 5818 5818 5818 5819 5819 5819 5819 5819 5819 5818 5818 5818 5818 5819 5819 5819 5819 5820 5821 5822 5822 5823 5823 5824 5825 5825 5826 5825 5825 5825 5826 5826 5826 5825 5825 5825 5824 5824 5823 5823 5823 5823 5824 5824 5825 5825 5825 5826 5827 5827 5827 5827 5827 5827 5827 5827 5827 5827 5827 5827 5826 5826 5826 5825 5825 5825 5825 5825 5825 5825 5825 5825 5825 5825 5825 5824
5813 5814 5815 5815 5815 5816 5815 5815 5816 5817 5817 5817 5817 5817 5818 5818 5819 5819 5818 5817 5817 5817 5818 5818 5818 5819 5819 5821 5821 5820 5822 5823 5823 5824 5824 5825 5825 5824 5825 5825 5825 5824 5824 5824 5824 5824 5824 5823 5823 5823 5823 5824 5824 5824 5824 5825 5826 5826 5827 5827 5827 5827 5827 5827 5827 5827 5826 5826 5826 5825 5825 5825 5824 5824 5824 5824 5824 5824 5824 5824 5824 5823 5823 5823 5822
5812 5813 5814 5814 5814 5814 5814 5814 5815 5816 5815 5815 5815 5816 5816 5817 5817 5818 5818 5817 5817 5816 5817 5817 5818 5819 5818 5820 5820 5819 5820 5821 5821 5822 5823 5823 5824 5824 5825 5824 5824 5824 5824 5824 5824 5824 5824 5824 5824 5824 5824 5824 5824 5824 5824 5825 5825 5826 5826 5826 5826 5826 5826 5826 5826 5826 5826 5825 5825 5825 5825 5824 5824 5823 5823 5823 5823 5823 5823 5822 5822 5822 5821 5821 5821
5810 5811 5812 5812 5812 5812 5812 5813 5814 5814 5814 5813 5814 5814 5815 5815 5815 5816 5816 5817 5816 5816 5817 5817 5817 5818 5818 5818 5819 5819 5819 5820 5820 5821 5822 5823 5823 5823 5824 5824 5823 5823 5824 5824 5824 5823 5824 5824 5824 5824 5824 5824 5824 5824 5824 5824 5825 5825 5825 5825 5826 5826 5825 5825 5825 5825 5825 5825 5825 5824 5824 5824 5823 5823 5822 5822 5822 5821 5821 5821 5821 5821 5820 5820 5819
5809 5810 5811 5811 5810 5810 5810 5811 5812 5812 5812 5812 5813 5813 5813 5813 5813 5814 5815 5814 5815 5815 5816 5815 5816 5817 5817 5817 5817 5818 5818 5819 5820 5820 5821 5822 5822 5822 5822 5823 5823 5823 5823 5823 5824 5824 5824 5824 5824 5824 5824 5824 5824 5824 5824 5824 5825 5824 5824 5825 5825 5825 5824 5824 5824 5824 5824 5824 5824 5824 5823 5823 5822 5822 5822 5821 5821 5821 5821 5820 5820 5820 5820 5819 5819
5807 5808 5809 5809 5808 5808 5809 5810 5810 5811 5811 5811 5812 5812 5812 5812 5812 5813 5813 5813 5813 5814 5814 5814 5814 5815 5815 5816 5816 5817 5818 5819 5819 5819 5820 5821 5821 5821 5821 5822 5822 5822 5822 5823 5823 5823 5823 5824 5824 5824 5824 5824 5824 5824 5824 5824 5824 5824 5823 5824 5824 5824 5824 5824 5824 5823 5823 5823 5823 5823 5823 5822 5822 5822 5821 5821 5821 5820 5820 5820 5819 5819 5819 5818 5817
5805 5806 5807 5806 5806 5807 5808 5809 5809 5810 5810 5811 5811 5811 5811 5811 5811 5812 5812 5812 5812 5812 5813 5813 5813 5813 5813 5814 5814 5816 5817 5818 5819 5819 5819 5820 5820 5820 5820 5821 5821 5821 5822 5822 5822 5822 5822 5823 5823 5823 5823 5823 5823 5824 5823 5823 5823 5823 5822 5822 5823 5823 5823 5823 5823 5823 5823 5823 5822 5822 5822 5821 5821 5821 5821 5820 5820 5820 5819 5819 5818 5818 5817 5817 5816
5803 5804 5804 5805 5805 5806 5807 5808 5808 5809 5809 5810 5810 5810 5811 5810 5810 5811 5811 5811 5811 5810 5811 5811 5812 5812 5812 5813 5813 5814 5816 5817 5818 5818 5818 5819 5819 5819 5820 5820 5820 5820 5821 5821 5821 5821 5822 5822 5822 5822 5822 5822 5823 5823 5823 5823 5822 5822 5822 5821 5822 5822 5822 5821 5821 5821 5821 5821 5821 5821 5821 5821 5820 5820 5820 5819 5819 5818 5818 5817 5817 5817 5816 5816 5815
5801 5802 5803 5803 5804 5805 5806 5806 5807 5807 5808 5808 5809 5809 5809 5809 5809 5809 5809 5809 5809 5809 5810 5810 5810 5811 5811 5812 5812 5813 5814 5816 5816 5817 5817 5818 5818 5818 5819 5819 5820 5820 5820 5820 5821 5821 5821 5821 5821 5821 5821 5822 5822 5822 5822 5822 5821 5821 5821 5820 5820 5820 5820 5820 5820 5820 5820 5820 5820 5820 5820 5819 5819 5819 5819 5818 5818 5817 5817 5816 5816 5815 5815 5815 5814
5799 5800 5801 5802 5803 5804 5804 5805 5805 5805 5806 5806 5806 5807 5807 5807 5808 5808 5807 5807 5808 5808 5808 5809 5810 5810 5810 5811 5811 5812 5813 5814 5815 5816 5816 5816 5817 5817 5817 5818 5818 5819 5819 5819 5820 5820 5820 5820 5820 5820 5821 5821 5821 5821 5821 5820 5820 5820 5819 5819 5819 5819 5819 5819 5819 5819 5819 5819 5819 5819 5819 5818 5818 5818 5817 5817 5816 5816 5816 5815 5815 5814 5814 5813 5813
5797 5798 5799 5800 5801 5802 5803 5804 5803 5803 5804 5804 5804 5805 5806 5806 5806 5806 5806 5806 5807 5807 5808 5808 5809 5809 5809 5810 5810 5811 5811 5812 5813 5814 5815 5815 5815 5816 5816 5816 5817 5817 5817 5818 5818 5819 5819 5819 5818 5819 5820 5820 5820 5820 5819 5819 5818 5818 5818 5818 5818 5818 5818 5817 5817 5817 5817 5817 5817 5817 5817 5817 5816 5816 5816 5815 5815 5814 5814 5814 5813 5813 5813 5812 5812
5795 5796 5796 5797 5798 5800 5802 5803 5802 5802 5802 5802 5802 5803 5804 5804 5804 5804 5805 5805 5806 5807 5807 5808 5808 5808 5808 5809 5809 5810 5810 5811 5812 5813 5814 5814 5814 5814 5814 5815 5815 5815 5816 5816 5817 5817 5817 5817 5817 5818 5818 5818 5818 5818 5817 5817 5817 5816 5816 5816 5816 5816 5816 5816 5816 5816 5816 5816 5815 5815 5815 5815 5815 5814 5814 5814 5813 5813 5813 5812 5812 5812 5812 5811 5810
5794 5794 5795 5795 5796 5798 5799 5800 5800 5799 5800 5800 5801 5802 5802 5802 5803 5803 5804 5804 5805 5806 5806 5807 5807 5807 5807 5808 5808 5809 5809 5810 5811 5812 5812 5812 5812 5813 5813 5813 5814 5814 5814 5815 5816 5816 5815 5815 5815 5816 5816 5816 5816 5815 5815 5815 5815 5815 5815 5815 5815 5815 5815 5815 5814 5814 5814 5814 5814 5814 5814 5813 5813 5813 5812 5812 5811 5811 5811 5811 5811 5811 5810 5810 5809
5791 5792 5793 5793 5794 5796 5797 5797 5797 5797 5797 5799 5799 5800 5800 5800 5801 5802 5802 5803 5804 5805 5805 5806 5806 5806 5806 5807 5807 5808 5808 5809 5809 5810 5810 5811 5811 5811 5812 5812 5812 5813 5813 5814 5814 5814 5813 5813 5814 5814 5814 5814 5814 5814 5813 5813 5813 5813 5813 5813 5813 5813 5813 5813 5813 5813 5812 5812 5812 5812 5812 5812 5812 5811 5811 5810 5810 5810 5809 5809 5809 5809 5809 5808 5808
5788 5790 5791 5791 5792 5794 5794 5795 5796 5795 5796 5797 5797 5797 5798 5798 5799 5800 5801 5802 5802 5803 5804 5804 5804 5804 5805 5805 5806 5806 5807 5807 5808 5808 5809 5809 5810 5810 5810 5811 5811 5811 5812 5812 5813 5812 5812 5812 5812 5812 5812 5812 5812 5812 5812 5812 5812 5811 5811 5811 5811 5811 5811 5811 5811 5811 5811 5811 5811 5810 5810 5810 5810 5810 5809 5809 5808 5808 5808 5808 5807 5807 5807 5807 5806
5786 5787 5788 5789 5790 5792 5792 5794 5794 5794 5794 5795 5795 5795 5796 5797 5798 5799 5800 5800 5801 5801 5802 5802 5802 5803 5803 5804 5805 5805 5805 5806 5807 5807 5807 5808 5808 5808 5809 5809 5809 5810 5810 5811 5811 5810 5810 5810 5810 5810 5810 5810 5810 5810 5810 5810 5810 5810 5810 5810 5810 5810 5810 5810 5810 5810 5810 5810 5809 5809 5809 5809 5808 5808 5808 5807 5807 5806 5806 5806 5806 5806 5805 5805 5805
5783 5785 5786 5787 5788 5790 5791 5792 5792 5792 5792 5793 5793 5794 5794 5795 5796 5797 5798 5798 5799 5799 5800 5800 5801 5801 5802 5803 5803 5803 5804 5804 5805 5806 5806 5806 5806 5807 5807 5808 5808 5808 5809 5809 5809 5808 5807 5807 5808 5808 5808 5808 5808 5808 5808 5808 5808 5808 5808 5808 5808 5808 5808 5809 5809 5808 5808 5808 5808 5808 5807 5807 5807 5807 5806 5805 5805 5804 5804 5804 5804 5804 5804 5803 5803
5781 5783 5784 5785 5786 5788 5790 5790 5790 5789 5790 5791 5792 5792 5793 5794 5795 5796 5796 5797 5797 5798 5798 5799 5799 5800 5801 5801 5802 5802 5802 5803 5804 5804 5804 5804 5805 5805 5805 5806 5806 5807 5807 5807 5807 5806 5806 5806 5806 5806 5806 5806 5807 5807 5807 5807 5806 5806 5806 5806 5806 5807 5807 5807 5807 5806 5806 5806 5806 5806 5806 5806 5805 5805 5804 5804 5803 5803 5802 5802 5802 5802 5801 5801 5801
5780 5781 5782 5783 5785 5787 5788 5788 5788 5788 5788 5789 5790 5791 5792 5793 5794 5795 5795 5795 5796 5796 5797 5797 5798 5798 5799 5800 5800 5801 5801 5801 5802 5802 5802 5802 5803 5803 5803 5804 5804 5805 5805 5805 5804 5804 5804 5804 5804 5804 5804 5805 5805 5805 5805 5805 5804 5804 5804 5804 5805 5805 5805 5805 5804 5804 5804 5804 5804 5804 5804 5804 5804 5803 5802 5802 5801 5801 5800 5800 5800 5800 5799 5799 5799
5778 5779 5780 5782 5783 5784 5785 5785 5786 5786 5787 5788 5788 5790 5791 5791 5792 5793 5793 5794 5794 5795 5795 5796 5796 5797 5797 5797 5798 5799 5799 5799 5800 5800 5800 5801 5801 5801 5801 5802 5802 5803 5803 5803 5802 5802 5802 5802 5802 5803 5803 5803 5803 5803 5803 5803 5803 5802 5802 5802 5802 5802 5803 5802 5802 5802 5802 5802 5802 5802 5802 5802 5802 5801 5801 5800 5799 5799 5799 5798 5798 5798 5797 5797 5796
5775 5777 5778 5780 5781 5782 5782 5783 5784 5784 5786 5786 5787 5788 5789 5790 5791 5791 5792 5793 5793 5793 5794 5794 5794 5795 5795 5795 5796 5796 5797 5797 5798 5798 5798 5799 5799 5799 5799 5799 5800 5801 5801 5801 5801 5800 5800 5800 5801 5801 5801 5801 5801 5801 5801 5801 5801 5800 5800 5800 5800 5800 5800 5800 5800 5800 5800 5800 5800 5800 5800 5800 5800 5799 5799 5798 5798 5797 5797 5796 5796 5795 5795 5795 5794
5773 5775 5776 5777 5779 5780 5780 5781 5782 5783 5784 5785 5785 5786 5787 5788 5789 5789 5790 5791 5791 5791 5791 5792 5792 5793 5793 5794 5794 5794 5795 5795 5795 5796 5796 5796 5796 5797 5797 5798 5798 5799 5800 5800 5800 5799 5798 5799 5799 5799 5799 5799 5799 5799 5799 5799 5799 5798 5798 5798 5798 5798 5798 5798 5798 5798 5798 5798 5798 5798 5798 5798 5798 5797 5797 5796 5796 5795 5795 5794 5794 5793 5793 5792 5792
5772 5773 5774 5775 5777 5778 5778 5779 5780 5781 5782 5783 5783 5784 5785 5786 5787 5788 5788 5789 5789 5789 5789 5790 5790 5791 5792 5792 5792 5792 5793 5793 5793 5793 5793 5794 5794 5794 5795 5796 5797 5798 5798 5799 5799 5798 5796 5797 5798 5798 5797 5797 5797 5797 5797 5796 5796 5796 5796 5796 5796 5796 5796 5796 5796 5796 5796 5796 5795 5795 5795 5795 5795 5795 5794 5794 5793 5793 5792 5792 5791 5791 5790 5789 5789
5770 5771 5772 5773 5775 5776 5776 5777 5778 5779 5780 5780 5781 5782 5783 5784 5785 5786 5786 5787 5787 5787 5787 5788 5789 5789 5790 5790 5790 5791 5791 5791 5791 5791 5791 5791 5791 5792 5792 5793 5794 5795 5796 5796 5797 5796 5795 5795 5795 5795 5795 5795 5795 5795 5794 5794 5794 5794 5793 5793 5793 5793 5793 5793 5793 5793 5793 5793 5793 5792 5792 5792 5792 5792 5792 5791 5791 5790 5790 5789 5788 5788 5787 5787 5786
5768 5769 5770 5771 5773 5773 5774 5775 5775 5776 5777 5778 5779 5780 5781 5782 5783 5783 5784 5784 5785 5785 5786 5786 5787 5788 5788 5788 5788 5788 5788 5788 5788 5788 5789 5789 5789 5789 5789 5790 5791 5792 5792 5792 5793 5793 5793 5793 5792 5793 5793 5793 5792 5792 5792 5791 5791 5791 5791 5790 5790 5790 5790 5790 5790 5790 5790 5790 5789 5789 5789 5789 5789 5789 5788 5788 5788 5787 5787 5786 5786 5785 5785 5784 5784
5767 5767 5768 5769 5770 5771 5771 5772 5773 5774 5774 5775 5776 5778 5779 5780 5781 5782 5782 5783 5783 5783 5784 5784 5785 5785 5786 5786 5786 5786 5786 5786 5786 5786 5786 5787 5787 5786 5786 5787 5788 5789 5789 5788 5789 5789 5790 5790 5790 5790 5790 5790 5789 5790 5790 5789 5789 5788 5788 5788 5788 5787 5787 5787 5787 5787 5787 5787 5786 5786 5786 5786 5786 5785 5785 5785 5785 5784 5784 5783 5783 5782 5782 5781 5780
5765 5766 5767 5767 5768 5768 5769 5769 5770 5771 5772 5773 5775 5776 5777 5778 5779 5780 5780 5781 5781 5781 5781 5782 5782 5783 5783 5783 5784 5784 5783 5783 5783 5783 5784 5784 5785 5784 5783 5784 5785 5786 5786 5785 5785 5785 5786 5787 5786 5786 5788 5787 5786 5786 5787 5786 5786 5786 5785 5785 5785 5784 5784 5784 5784 5784 5784 5783 5783 5783 5783 5782 5782 5782 5782 5781 5781 5781 5780 5780 5779 5779 5778 5777 5777
5763 5764 5765 5766 5766 5766 5767 5768 5769 5770 5771 5772 5773 5774 5775 5776 5776 5777 5778 5778 5779 5779 5779 5779 5780 5780 5780 5781 5781 5781 5781 5781 5781 5781 5782 5782 5782 5782 5782 5782 5782 5782 5782 5782 5782 5782 5783 5783 5783 5783 5785 5785 5784 5783 5783 5783 5783 5783 5783 5782 5782 5781 5780 5780 5781 5781 5780 5780 5780 5779 5779 5779 5779 5778 5778 5778 5777 5777 5777 5776 5776 5775 5774 5774 5773
5761 5762 5764 5764 5764 5765 5765 5766 5767 5768 5769 5770 5771 5772 5773 5773 5774 5775 5775 5776 5776 5777 5777 5777 5778 5778 5778 5779 5779 5779 5779 5778 5778 5779 5779 5779 5779 5779 5779 5779 5779 5779 5779 5779 5779 5779 5779 5780 5781 5780 5781 5782 5782 5781 5781 5781 5780 5780 5779 5779 5779 5779 5777 5777 5778 5778 5777 5777 5776 5776 5776 5776 5775 5775 5774 5774 5774 5773 5773 5772 5772 5771 5770 5770 5768
5758 5760 5761 5762 5763 5763 5764 5764 5765 5766 5767 5768 5769 5770 5771 5771 5772 5772 5773 5773 5774 5774 5775 5775 5776 5776 5776 5776 5777 5776 5776 5775 5775 5775 5775 5775 5775 5776 5776 5776 5775 5775 5776 5777 5777 5777 5776 5776 5777 5777 5777 5778 5779 5778 5778 5777 5777 5777 5777 5777 5777 5777 5775 5774 5774 5775 5774 5773 5772 5772 5772 5772 5772 5771 5771 5770 5770 5769 5769 5768 5768 5767 5766 5765 5764
5756 5758 5759 5760 5761 5761 5761 5763 5764 5765 5766 5766 5767 5768 5768 5769 5769 5770 5770 5771 5771 5772 5773 5774 5774 5774 5774 5774 5773 5773 5773 5772 5771 5771 5772 5772 5772 5772 5772 5772 5772 5771 5772 5773 5773 5774 5773 5773 5773 5774 5774 5773 5774 5775 5775 5775 5774 5773 5774 5774 5775 5774 5773 5772 5771 5770 5770 5769 5768 5768 5768 5768 5767 5767 5767 5766 5765 5765 5764 5764 5763 5762 5762 5761 5760
5754 5755 5756 5757 5758 5758 5759 5761 5762 5763 5764 5764 5765 5765 5766 5766 5767 5767 5768 5768 5769 5770 5771 5772 5771 5771 5771 5770 5770 5770 5770 5770 5769 5769 5769 5769 5769 5769 5769 5770 5769 5769 5768 5769 5770 5771 5771 5770 5770 5770 5770 5770 5770 5770 5772 5772 5771 5770 5770 5770 5771 5771 5770 5770 5768 5767 5765 5764 5764 5764 5764 5763 5763 5763 5763 5762 5761 5760 5759 5759 5758 5757 5756 5756 5754
5752 5753 5754 5754 5755 5756 5758 5759 5760 5761 5761 5762 5762 5763 5763 5764 5765 5765 5765 5766 5767 5768 5768 5768 5768 5768 5767 5767 5767 5768 5768 5768 5768 5768 5767 5767 5767 5766 5766 5767 5767 5767 5766 5765 5766 5767 5768 5768 5767 5767 5767 5766 5766 5766 5766 5767 5768 5768 5767 5767 5767 5767 5767 5766 5765 5764 5762 5761 5760 5759 5760 5759 5759 5759 5758 5757 5756 5755 5754 5753 5752 5751 5751 5750 5749
5749 5751 5751 5751 5753 5755 5756 5757 5758 5759 5759 5759 5760 5760 5761 5762 5762 5762 5763 5764 5764 5765 5765 5764 5764 5764 5764 5764 5765 5765 5765 5766 5766 5766 5765 5765 5765 5765 5764 5764 5764 5764 5763 5763 5763 5763 5764 5764 5764 5764 5764 5763 5763 5763 5762 5762 5762 5763 5763 5763 5763 5763 5763 5762 5762 5761 5759 5758 5756 5755 5755 5755 5754 5754 5753 5752 5751 5750 5749 5748 5747 5746 5746 5745 5743
5747 5748 5748 5749 5751 5753 5754 5755 5756 5756 5756 5756 5757 5757 5758 5759 5759 5760 5760 5761 5762 5762 5762 5761 5761 5761 5761 5761 5762 5763 5763 5763 5764 5763 5763 5762 5762 5762 5762 5762 5761 5761 5761 5761 5760 5760 5760 5760 5760 5760 5760 5760 5760 5760 5760 5759 5758 5757 5757 5758 5758 5758 5758 5758 5758 5758 5756 5754 5753 5752 5751 5749 5749 5748 5748 5747 5746 5745 5744 5743 5742 5741 5740 5739 5738
5745 5745 5746 5747 5749 5750 5751 5752 5753 5753 5753 5754 5754 5755 5755 5756 5756 5756 5757 5758 5759 5759 5759 5759 5759 5759 5758 5758 5759 5760 5760 5760 5760 5760 5760 5760 5760 5760 5760 5760 5759 5759 5758 5758 5757 5757 5756 5756 5756 5755 5755 5756 5756 5756 5756 5755 5754 5754 5753 5753 5752 5752 5752 5752 5752 5752 5751 5750 5748 5748 5747 5745 5744 5743 5742 5741 5740 5739 5738 5738 5737 5735 5733 5732 5731
5742 5743 5744 5745 5746 5748 5749 5749 5749 5750 5750 5751 5751 5752 5752 5752 5753 5753 5754 5755 5756 5757 5757 5756 5756 5756 5756 5756 5756 5756 5755 5756 5756 5757 5757 5757 5757 5757 5757 5757 5757 5756 5756 5755 5755 5754 5753 5753 5752 5752 5752 5752 5752 5751 5751 5751 5750 5750 5750 5749 5748 5747 5746 5746 5746 5745 5745 5744 5743 5742 5742 5742 5740 5738 5738 5737 5736 5734 5732 5731 5729 5728 5726 5724 5722
5740 5741 5742 5743 5744 5745 5746 5747 5746 5746 5747 5747 5748 5749 5749 5749 5750 5751 5751 5752 5752 5753 5754 5754 5754 5753 5753 5752 5752 5752 5752 5753 5753 5754 5754 5755 5755 5754 5754 5754 5754 5753 5753 5752 5752 5751 5750 5750 5750 5749 5749 5749 5748 5748 5747 5747 5746 5745 5745 5744 5743 5742 5742 5741 5740 5739 5739 5739 5737 5735 5735 5735 5734 5733 5733 5732 5731 5729 5727 5725 5723 5720 5719 5717 5714
5737 5738 5739 5740 5741 5742 5743 5743 5743 5743 5743 5744 5745 5745 5746 5746 5747 5749 5749 5748 5748 5749 5750 5750 5750 5750 5750 5750 5749 5750 5750 5750 5750 5750 5750 5751 5751 5751 5750 5750 5750 5749 5749 5749 5749 5748 5747 5746 5746 5746 5746 5745 5745 5744 5744 5743 5742 5741 5740 5739 5738 5738 5737 5736 5736 5735 5734 5733 5731 5730 5729 5728 5726 5726 5726 5725 5724 5723 5721 5719 5717 5714 5712 5708 5706
5735 5736 5736 5737 5737 5738 5739 5740 5740 5740 5740 5740 5741 5741 5742 5742 5743 5745 5745 5744 5744 5745 5746 5746 5746 5747 5747 5747 5747 5747 5747 5746 5746 5746 5747 5747 5746 5746 5746 5745 5745 5745 5744 5745 5744 5743 5743 5742 5742 5741 5741 5741 5740 5740 5739 5738 5737 5736 5735 5734 5732 5731 5731 5731 5731 5730 5728 5727 5726 5725 5724 5721 5719 5719 5718 5718 5717 5716 5713 5711 5710 5708 5705 5701 5698
5732 5733 5733 5734 5734 5735 5736 5736 5737 5737 5736 5737 5737 5737 5737 5737 5738 5739 5740 5740 5741 5741 5742 5743 5743 5744 5744 5744 5744 5743 5743 5742 5743 5743 5743 5743 5742 5742 5741 5741 5740 5740 5740 5740 5739 5738 5738 5737 5737 5736 5736 5735 5735 5735 5734 5733 5732 5730 5729 5728 5726 5725 5725 5725 5724 5723 5722 5721 5719 5718 5717 5715 5712 5711 5710 5710 5709 5708 5706 5704 5702 5700 5698 5695 5693
5728 5730 5730 5731 5732 5732 5732 5733 5733 5733 5733 5733 5733 5733 5733 5733 5734 5734 5735 5736 5737 5737 5738 5740 5740 5740 5740 5740 5740 5740 5739 5739 5739 5739 5739 5739 5738 5738 5737 5737 5736 5736 5735 5735 5735 5734 5734 5733 5732 5731 5730 5729 5729 5729 5728 5728 5726 5724 5722 5721 5721 5720 5719 5718 5717 5717 5715 5714 5713 5712 5710 5708 5705 5703 5702 5702 5701 5699 5698 5696 5694 5692 5690 5688 5687